Time,TemperatureF,DewpointF,PressureIn,WindDirection,WindDirectionDegrees,WindSpeedMPH,WindSpeedGustMPH,Humidity,HourlyPrecipIn,Conditions,Clouds,dailyrainin,SoftwareType,DateUTC
2013-09-03 00:00:00,74.4,66.4,29.87,SSW,212,4.6,4.6,76,0.00,RA,SCT,0.00,WeatherDisplay:10.37,2013-09-03 04:00:00,
2013-09-03 00:01:00,74.4,66.4,29.87,SW,220,4.6,4.6,76,0.00,RA,SCT,0.00,WeatherDisplay:10.37,2013-09-03 04:01:00,
2013-09-03 00:02:00,74.4,66.4,29.87,WSW,250,3.5,3.5,76,0.00,RA,SCT,0.00,WeatherDisplay:10.37,2013-09-03 04:02:00,
2013-09-03 00:07:00,74.3,66.7,29.87,WSW,258,3.5,3.5,77,0.00,RA,SCT,0.00,WeatherDisplay:10.37,2013-09-03 04:07:00,
2013-09-03 00:12:00,74.3,66.7,29.87,SSW,202,0.0,0.0,77,0.00,FEW,SCT,0.00,WeatherDisplay:10.37,2013-09-03 04:12:00,
2013-09-03 00:17:00,74.4,66.8,29.87,SSW,202,0.0,0.0,77,0.00,FEW,SCT,0.00,WeatherDisplay:10.37,2013-09-03 04:17:00,
2013-09-03 00:22:00,74.2,66.9,29.87,East,85,2.3,2.3,78,0.00,FEW,SCT,0.00,WeatherDisplay:10.37,2013-09-03 04:22:00,
2013-09-03 00:27:00,74.1,66.8,29.87,East,79,0.0,0.0,78,0.00,FEW,SCT,0.00,WeatherDisplay:10.37,2013-09-03 04:27:00,
2013-09-03 00:32:00,74.0,66.7,29.87,East,79,0.0,0.0,78,0.00,FEW,SCT,0.00,WeatherDisplay:10.37,2013-09-03 04:32:00,
2013-09-03 00:37:00,74.2,66.9,29.88,East,79,0.0,0.0,78,0.00,FEW,SCT,0.00,WeatherDisplay:10.37,2013-09-03 04:37:00,
2013-09-03 00:42:00,74.1,66.8,29.88,East,79,0.0,0.0,78,0.00,FEW,SCT,0.00,WeatherDisplay:10.37,2013-09-03 04:42:00,
2013-09-03 00:47:00,74.1,66.8,29.88,NNE,30,1.1,1.1,78,0.00,FEW,SCT,0.00,WeatherDisplay:10.37,2013-09-03 04:47:00,
2013-09-03 00:52:00,74.2,67.3,29.88,South,188,0.0,0.0,79,0.00,FEW,SCT,0.00,WeatherDisplay:10.37,2013-09-03 04:52:00,
2013-09-03 00:57:00,73.9,67.4,29.88,South,188,0.0,0.0,80,0.00,FEW,SCT,0.00,WeatherDisplay:10.37,2013-09-03 04:57:00,
2013-09-03 01:02:00,73.8,67.3,29.89,East,82,2.3,2.3,80,0.00,FEW,SCT,0.00,WeatherDisplay:10.37,2013-09-03 05:02:00,
2013-09-03 01:07:00,73.8,67.6,29.88,NE,49,0.0,0.0,81,0.00,FEW,SCT,0.00,WeatherDisplay:10.37,2013-09-03 05:07:00,
2013-09-03 01:12:00,73.7,67.5,29.88,NE,49,0.0,0.0,81,0.00,FEW,SCT,0.00,WeatherDisplay:10.37,2013-09-03 05:12:00,
2013-09-03 01:17:00,73.8,67.6,29.88,NE,49,0.0,0.0,81,0.00,FEW,SCT,0.00,WeatherDisplay:10.37,2013-09-03 05:17:00,
2013-09-03 01:22:00,73.6,67.4,29.88,NE,49,0.0,0.0,81,0.00,FEW,SCT,0.00,WeatherDisplay:10.37,2013-09-03 05:22:00,
2013-09-03 01:27:00,73.7,67.5,29.88,WSW,248,2.3,2.3,81,0.00,FEW,SCT,0.00,WeatherDisplay:10.37,2013-09-03 05:27:00,
2013-09-03 01:32:00,73.7,67.2,29.88,ESE,110,0.0,0.0,80,0.00,FEW,SCT,0.00,WeatherDisplay:10.37,2013-09-03 05:32:00,
2013-09-03 01:37:00,73.7,67.2,29.87,South,182,0.0,0.0,80,0.00,FEW,SCT,0.00,WeatherDisplay:10.37,2013-09-03 05:37:00,
2013-09-03 01:42:00,73.7,67.2,29.87,SW,227,1.1,1.1,80,0.00,FEW,SCT,0.00,WeatherDisplay:10.37,2013-09-03 05:42:00,
2013-09-03 01:47:00,73.6,67.1,29.87,South,185,0.0,0.0,80,0.00,FEW,SCT,0.00,WeatherDisplay:10.37,2013-09-03 05:47:00,
2013-09-03 01:52:00,73.6,67.1,29.86,South,185,0.0,0.0,80,0.00,FEW,SCT,0.00,WeatherDisplay:10.37,2013-09-03 05:52:00,
2013-09-03 01:57:00,73.3,66.8,29.86,South,185,0.0,0.0,80,0.00,FEW,SCT,0.00,WeatherDisplay:10.37,2013-09-03 05:57:00,
2013-09-03 02:02:00,73.2,66.7,29.86,East,86,0.0,0.0,80,0.00,CLR,SCT,0.00,WeatherDisplay:10.37,2013-09-03 06:02:00,
2013-09-03 02:07:00,73.2,66.7,29.86,East,86,0.0,0.0,80,0.00,CLR,SCT,0.00,WeatherDisplay:10.37,2013-09-03 06:07:00,
2013-09-03 02:12:00,73.2,66.7,29.86,East,86,0.0,0.0,80,0.00,CLR,SCT,0.00,WeatherDisplay:10.37,2013-09-03 06:12:00,
2013-09-03 02:17:00,73.2,66.7,29.86,WSW,241,0.0,0.0,80,0.00,CLR,SCT,0.00,WeatherDisplay:10.37,2013-09-03 06:17:00,
2013-09-03 02:22:00,73.2,66.7,29.86,WSW,241,0.0,0.0,80,0.00,CLR,SCT,0.00,WeatherDisplay:10.37,2013-09-03 06:22:00,
2013-09-03 02:27:00,72.9,66.4,29.86,WSW,241,0.0,0.0,80,0.00,CLR,SCT,0.00,WeatherDisplay:10.37,2013-09-03 06:27:00,
2013-09-03 02:32:00,72.9,66.8,29.86,WSW,241,0.0,0.0,81,0.00,CLR,SCT,0.00,WeatherDisplay:10.37,2013-09-03 06:32:00,
2013-09-03 02:37:00,72.9,66.8,29.85,WSW,241,0.0,0.0,81,0.00,CLR,SCT,0.00,WeatherDisplay:10.37,2013-09-03 06:37:00,
2013-09-03 02:42:00,72.9,66.8,29.85,WSW,241,0.0,0.0,81,0.00,CLR,SCT,0.00,WeatherDisplay:10.37,2013-09-03 06:42:00,
2013-09-03 02:47:00,72.9,67.1,29.86,WSW,241,0.0,0.0,82,0.00,CLR,SCT,0.00,WeatherDisplay:10.37,2013-09-03 06:47:00,
2013-09-03 02:52:00,72.8,67.0,29.86,WSW,241,0.0,0.0,82,0.00,CLR,SCT,0.00,WeatherDisplay:10.37,2013-09-03 06:52:00,
2013-09-03 02:57:00,72.8,67.0,29.86,WSW,241,0.0,0.0,82,0.00,CLR,SCT,0.00,WeatherDisplay:10.37,2013-09-03 06:57:00,
2013-09-03 03:02:00,72.6,66.8,29.86,WSW,241,0.0,0.0,82,0.00,CLR,SCT,0.00,WeatherDisplay:10.37,2013-09-03 07:02:00,
2013-09-03 03:07:00,72.5,67.1,29.86,WSW,241,0.0,0.0,83,0.00,CLR,SCT,0.00,WeatherDisplay:10.37,2013-09-03 07:07:00,
2013-09-03 03:12:00,72.4,67.0,29.86,ENE,71,0.0,0.0,83,0.00,CLR,SCT,0.00,WeatherDisplay:10.37,2013-09-03 07:12:00,
2013-09-03 03:17:00,72.1,66.7,29.86,ENE,71,0.0,0.0,83,0.00,CLR,SCT,0.00,WeatherDisplay:10.37,2013-09-03 07:17:00,
2013-09-03 03:22:00,71.8,66.4,29.86,East,93,0.0,0.0,83,0.00,CLR,SCT,0.00,WeatherDisplay:10.37,2013-09-03 07:22:00,
2013-09-03 03:27:00,72.0,66.2,29.86,SSW,205,5.8,5.8,82,0.00,CLR,SCT,0.00,WeatherDisplay:10.37,2013-09-03 07:27:00,
2013-09-03 03:32:00,72.1,66.3,29.86,SW,229,0.0,0.0,82,0.00,CLR,SCT,0.00,WeatherDisplay:10.37,2013-09-03 07:32:00,
2013-09-03 03:37:00,72.3,66.5,29.86,NE,40,1.1,1.1,82,0.00,CLR,SCT,0.00,WeatherDisplay:10.37,2013-09-03 07:37:00,
2013-09-03 03:42:00,72.4,66.3,29.86,NE,40,0.0,0.0,81,0.00,CLR,SCT,0.00,WeatherDisplay:10.37,2013-09-03 07:42:00,
2013-09-03 03:47:00,72.5,66.4,29.86,NE,40,0.0,0.0,81,0.00,CLR,SCT,0.00,WeatherDisplay:10.37,2013-09-03 07:47:00,
2013-09-03 03:52:00,72.5,66.0,29.85,NE,40,0.0,0.0,80,0.00,CLR,SCT,0.00,WeatherDisplay:10.37,2013-09-03 07:52:00,
2013-09-03 03:57:00,72.6,66.1,29.85,NE,40,0.0,0.0,80,0.00,CLR,SCT,0.00,WeatherDisplay:10.37,2013-09-03 07:57:00,
2013-09-03 04:02:00,72.5,66.0,29.86,NE,40,0.0,0.0,80,0.00,SCT,,0.00,WeatherDisplay:10.37,2013-09-03 08:02:00,
2013-09-03 04:07:00,72.5,66.0,29.85,NE,40,0.0,0.0,80,0.00,SCT,,0.00,WeatherDisplay:10.37,2013-09-03 08:07:00,
2013-09-03 04:12:00,72.6,66.5,29.85,NE,40,0.0,0.0,81,0.00,SCT,,0.00,WeatherDisplay:10.37,2013-09-03 08:12:00,
2013-09-03 04:17:00,72.4,66.3,29.85,ENE,71,0.0,0.0,81,0.00,SCT,,0.00,WeatherDisplay:10.37,2013-09-03 08:17:00,
2013-09-03 04:22:00,72.1,66.3,29.85,East,93,0.0,0.0,82,0.00,SCT,,0.00,WeatherDisplay:10.37,2013-09-03 08:22:00,
2013-09-03 04:27:00,71.8,66.0,29.85,East,93,0.0,0.0,82,0.00,SCT,,0.00,WeatherDisplay:10.37,2013-09-03 08:27:00,
2013-09-03 04:32:00,71.7,66.3,29.85,East,93,0.0,0.0,83,0.00,SCT,,0.00,WeatherDisplay:10.37,2013-09-03 08:32:00,
2013-09-03 04:37:00,71.7,66.3,29.85,East,93,0.0,0.0,83,0.00,SCT,,0.00,WeatherDisplay:10.37,2013-09-03 08:37:00,
2013-09-03 04:42:00,71.6,66.2,29.85,East,93,0.0,0.0,83,0.00,SCT,,0.00,WeatherDisplay:10.37,2013-09-03 08:42:00,
2013-09-03 04:47:00,71.4,66.0,29.84,SSW,195,0.0,0.0,83,0.00,SCT,,0.00,WeatherDisplay:10.37,2013-09-03 08:47:00,
2013-09-03 04:52:00,71.4,66.0,29.85,WNW,285,0.0,0.0,83,0.00,SCT,,0.00,WeatherDisplay:10.37,2013-09-03 08:52:00,
2013-09-03 04:57:00,71.3,65.9,29.84,WNW,285,0.0,0.0,83,0.00,SCT,,0.00,WeatherDisplay:10.37,2013-09-03 08:57:00,
2013-09-03 05:02:00,71.6,66.2,29.84,WNW,285,0.0,0.0,83,0.00,SCT,,0.00,WeatherDisplay:10.37,2013-09-03 09:02:00,
2013-09-03 05:07:00,71.4,66.0,29.84,WNW,285,0.0,0.0,83,0.00,SCT,,0.00,WeatherDisplay:10.37,2013-09-03 09:07:00,
2013-09-03 05:12:00,71.4,66.0,29.84,NNE,25,0.0,0.0,83,0.00,SCT,,0.00,WeatherDisplay:10.37,2013-09-03 09:12:00,
2013-09-03 05:17:00,71.1,66.1,29.84,NNE,25,0.0,0.0,84,0.00,SCT,,0.00,WeatherDisplay:10.37,2013-09-03 09:17:00,
2013-09-03 05:22:00,71.0,66.0,29.85,East,99,4.0,4.0,84,0.00,SCT,,0.00,WeatherDisplay:10.37,2013-09-03 09:22:00,
2013-09-03 05:27:00,70.9,65.9,29.85,WNW,302,0.0,0.0,84,0.00,SCT,,0.00,WeatherDisplay:10.37,2013-09-03 09:27:00,
2013-09-03 05:32:00,71.0,66.0,29.85,WSW,244,0.0,0.0,84,0.00,SCT,,0.00,WeatherDisplay:10.37,2013-09-03 09:32:00,
2013-09-03 05:37:00,70.9,65.9,29.85,WSW,244,0.0,0.0,84,0.00,SCT,,0.00,WeatherDisplay:10.37,2013-09-03 09:37:00,
2013-09-03 05:42:00,70.8,65.8,29.86,WSW,244,0.0,0.0,84,0.00,SCT,,0.00,WeatherDisplay:10.37,2013-09-03 09:42:00,
2013-09-03 05:47:00,70.9,65.9,29.86,WSW,244,0.0,0.0,84,0.00,SCT,,0.00,WeatherDisplay:10.37,2013-09-03 09:47:00,
2013-09-03 05:52:00,70.9,65.9,29.86,ESE,116,2.3,0.0,84,0.00,SCT,,0.00,WeatherDisplay:10.37,2013-09-03 09:52:00,
2013-09-03 05:57:00,70.9,65.9,29.87,East,85,0.0,0.0,84,0.00,SCT,,0.00,WeatherDisplay:10.37,2013-09-03 09:57:00,
2013-09-03 06:02:00,70.9,65.9,29.87,East,86,2.0,2.0,84,0.00,CLR,SCT,0.00,WeatherDisplay:10.37,2013-09-03 10:02:00,
2013-09-03 06:07:00,70.8,65.8,29.87,NNE,28,2.3,2.3,84,0.00,CLR,SCT,0.00,WeatherDisplay:10.37,2013-09-03 10:07:00,
2013-09-03 06:12:00,70.8,65.8,29.87,NE,52,0.0,0.0,84,0.00,CLR,SCT,0.00,WeatherDisplay:10.37,2013-09-03 10:12:00,
2013-09-03 06:17:00,70.7,65.7,29.87,NE,52,0.0,0.0,84,0.00,CLR,SCT,0.00,WeatherDisplay:10.37,2013-09-03 10:17:00,
2013-09-03 06:22:00,70.6,65.9,29.86,NE,52,0.0,0.0,85,0.00,CLR,SCT,0.00,WeatherDisplay:10.37,2013-09-03 10:22:00,
2013-09-03 06:27:00,70.6,65.6,29.86,NE,49,0.0,0.0,84,0.00,CLR,SCT,0.00,WeatherDisplay:10.37,2013-09-03 10:27:00,
2013-09-03 06:32:00,70.7,66.0,29.86,NE,49,0.0,0.0,85,0.00,CLR,SCT,0.00,WeatherDisplay:10.37,2013-09-03 10:32:00,
2013-09-03 06:37:00,70.7,66.0,29.86,NE,49,0.0,0.0,85,0.00,CLR,SCT,0.00,WeatherDisplay:10.37,2013-09-03 10:37:00,
2013-09-03 06:42:00,70.6,65.9,29.86,NE,49,0.0,0.0,85,0.00,CLR,SCT,0.00,WeatherDisplay:10.37,2013-09-03 10:42:00,
2013-09-03 06:47:00,70.6,65.9,29.87,NE,49,0.0,0.0,85,0.00,CLR,SCT,0.00,WeatherDisplay:10.37,2013-09-03 10:47:00,
2013-09-03 06:52:00,70.4,65.7,29.86,NE,37,1.1,0.0,85,0.00,CLR,SCT,0.00,WeatherDisplay:10.37,2013-09-03 10:52:00,
2013-09-03 06:57:00,70.4,65.7,29.87,ENE,71,0.0,0.0,85,0.00,CLR,SCT,0.00,WeatherDisplay:10.37,2013-09-03 10:57:00,
2013-09-03 07:02:00,70.4,66.0,29.87,ENE,71,0.0,0.0,86,0.00,CLR,SCT,0.00,WeatherDisplay:10.37,2013-09-03 11:02:00,
2013-09-03 07:07:00,70.3,66.0,29.87,ENE,71,0.0,0.0,86,0.00,CLR,SCT,0.00,WeatherDisplay:10.37,2013-09-03 11:07:00,
2013-09-03 07:12:00,70.5,66.1,29.87,ENE,71,0.0,0.0,86,0.00,CLR,SCT,0.00,WeatherDisplay:10.37,2013-09-03 11:12:00,
2013-09-03 07:17:00,70.4,66.0,29.87,ENE,71,0.0,0.0,86,0.00,CLR,SCT,0.00,WeatherDisplay:10.37,2013-09-03 11:17:00,
2013-09-03 07:22:00,70.4,66.0,29.88,ENE,71,0.0,0.0,86,0.00,CLR,SCT,0.00,WeatherDisplay:10.37,2013-09-03 11:22:00,
2013-09-03 07:27:00,70.5,66.1,29.88,ENE,71,0.0,0.0,86,0.00,CLR,SCT,0.00,WeatherDisplay:10.37,2013-09-03 11:27:00,
2013-09-03 07:32:00,70.5,66.1,29.88,ENE,69,0.0,0.0,86,0.00,CLR,SCT,0.00,WeatherDisplay:10.37,2013-09-03 11:32:00,
2013-09-03 07:37:00,70.6,66.2,29.89,ENE,69,0.0,0.0,86,0.00,CLR,SCT,0.00,WeatherDisplay:10.37,2013-09-03 11:37:00,
2013-09-03 07:42:00,70.8,66.4,29.89,ENE,69,0.0,0.0,86,0.00,CLR,SCT,0.00,WeatherDisplay:10.37,2013-09-03 11:42:00,
2013-09-03 07:47:00,70.8,66.4,29.89,ENE,69,0.0,0.0,86,0.00,CLR,SCT,0.00,WeatherDisplay:10.37,2013-09-03 11:47:00,
2013-09-03 07:52:00,70.9,66.5,29.90,ENE,69,0.0,0.0,86,0.00,CLR,SCT,0.00,WeatherDisplay:10.37,2013-09-03 11:52:00,
2013-09-03 07:57:00,71.0,66.6,29.90,ENE,76,0.0,0.2,86,0.00,CLR,SCT,0.00,WeatherDisplay:10.37,2013-09-03 11:57:00,
2013-09-03 08:02:00,71.0,66.6,29.90,ENE,76,0.0,0.0,86,0.00,CLR,SCT,0.00,WeatherDisplay:10.37,2013-09-03 12:02:00,
2013-09-03 08:07:00,71.1,66.7,29.90,ENE,76,0.0,0.0,86,0.00,CLR,SCT,0.00,WeatherDisplay:10.37,2013-09-03 12:07:00,
2013-09-03 08:13:00,71.1,66.7,29.90,North,0,0.0,0.0,86,0.00,CLR,SCT,0.00,WeatherDisplay:10.37,2013-09-03 12:13:00,
2013-09-03 08:18:00,71.4,67.0,29.90,North,0,0.0,0.0,86,0.00,CLR,SCT,0.00,WeatherDisplay:10.37,2013-09-03 12:18:00,
2013-09-03 08:23:00,71.5,67.1,29.91,North,0,0.0,0.0,86,0.00,CLR,SCT,0.00,WeatherDisplay:10.37,2013-09-03 12:23:00,
2013-09-03 08:28:00,71.7,67.3,29.91,NNE,21,1.1,1.1,86,0.00,CLR,SCT,0.00,WeatherDisplay:10.37,2013-09-03 12:28:00,
2013-09-03 08:33:00,71.8,67.1,29.91,ENE,68,2.3,2.3,85,0.00,CLR,SCT,0.00,WeatherDisplay:10.37,2013-09-03 12:33:00,
2013-09-03 08:38:00,71.9,67.5,29.91,ENE,61,1.6,1.6,86,0.00,CLR,SCT,0.00,WeatherDisplay:10.37,2013-09-03 12:38:00,
2013-09-03 08:43:00,72.1,67.4,29.91,ENE,73,0.0,0.0,85,0.00,CLR,SCT,0.00,WeatherDisplay:10.37,2013-09-03 12:43:00,
2013-09-03 08:48:00,72.4,67.7,29.91,ENE,75,0.0,0.0,85,0.00,CLR,SCT,0.00,WeatherDisplay:10.37,2013-09-03 12:48:00,
2013-09-03 08:53:00,72.3,67.2,29.91,East,89,2.3,2.3,84,0.00,CLR,SCT,0.00,WeatherDisplay:10.37,2013-09-03 12:53:00,
2013-09-03 08:58:00,72.7,67.6,29.91,ENE,75,0.0,0.0,84,0.00,CLR,SCT,0.00,WeatherDisplay:10.37,2013-09-03 12:58:00,
2013-09-03 09:03:00,72.8,67.4,29.91,NE,47,0.0,0.0,83,0.00,FEW,SCT,0.00,WeatherDisplay:10.37,2013-09-03 13:03:00,
2013-09-03 09:08:00,72.9,67.5,29.91,NE,47,0.0,0.0,83,0.00,FEW,SCT,0.00,WeatherDisplay:10.37,2013-09-03 13:08:00,
2013-09-03 09:13:00,73.3,67.9,29.91,NNE,32,1.1,1.1,83,0.00,FEW,SCT,0.00,WeatherDisplay:10.37,2013-09-03 13:13:00,
2013-09-03 09:18:00,73.5,67.7,29.91,NNE,32,0.0,0.0,82,0.00,FEW,SCT,0.00,WeatherDisplay:10.37,2013-09-03 13:18:00,
2013-09-03 09:23:00,73.5,67.7,29.92,East,79,2.3,2.3,82,0.00,FEW,SCT,0.00,WeatherDisplay:10.37,2013-09-03 13:23:00,
2013-09-03 09:28:00,73.4,67.6,29.92,East,79,0.0,0.0,82,0.00,FEW,SCT,0.00,WeatherDisplay:10.37,2013-09-03 13:28:00,
2013-09-03 09:33:00,73.6,67.8,29.92,ENE,72,2.3,2.3,82,0.00,FEW,SCT,0.00,WeatherDisplay:10.37,2013-09-03 13:33:00,
2013-09-03 09:38:00,73.8,68.0,29.92,ENE,72,0.0,0.0,82,0.00,FEW,SCT,0.00,WeatherDisplay:10.37,2013-09-03 13:38:00,
2013-09-03 09:43:00,73.8,68.0,29.93,ENE,61,0.0,0.0,82,0.00,FEW,SCT,0.00,WeatherDisplay:10.37,2013-09-03 13:43:00,
2013-09-03 09:48:00,74.0,67.8,29.92,ENE,61,0.0,0.0,81,0.00,FEW,SCT,0.00,WeatherDisplay:10.37,2013-09-03 13:48:00,
2013-09-03 09:53:00,74.2,68.0,29.93,ENE,71,0.0,0.0,81,0.00,FEW,SCT,0.00,WeatherDisplay:10.37,2013-09-03 13:53:00,
2013-09-03 09:58:00,74.4,67.9,29.93,NNW,333,1.1,1.1,80,0.00,FEW,SCT,0.00,WeatherDisplay:10.37,2013-09-03 13:58:00,
2013-09-03 10:03:00,74.5,67.6,29.93,NNE,32,0.0,0.0,79,0.00,FEW,SCT,0.00,WeatherDisplay:10.37,2013-09-03 14:03:00,
2013-09-03 10:08:00,74.9,68.0,29.93,NE,34,1.1,1.1,79,0.00,FEW,SCT,0.00,WeatherDisplay:10.37,2013-09-03 14:08:00,
2013-09-03 10:13:00,75.5,68.2,29.93,NNE,21,0.0,0.0,78,0.00,FEW,SCT,0.00,WeatherDisplay:10.37,2013-09-03 14:13:00,
2013-09-03 10:18:00,75.9,67.8,29.93,West,272,0.0,0.0,76,0.00,FEW,SCT,0.00,WeatherDisplay:10.37,2013-09-03 14:18:00,
2013-09-03 10:23:00,75.9,67.4,29.93,ESE,106,0.0,0.0,75,0.00,FEW,SCT,0.00,WeatherDisplay:10.37,2013-09-03 14:23:00,
2013-09-03 10:28:00,76.2,68.1,29.93,NNE,32,0.0,0.0,76,0.00,FEW,SCT,0.00,WeatherDisplay:10.37,2013-09-03 14:28:00,
2013-09-03 10:33:00,76.6,68.1,29.93,ENE,64,2.3,2.3,75,0.00,FEW,SCT,0.00,WeatherDisplay:10.37,2013-09-03 14:33:00,
2013-09-03 10:38:00,77.1,68.6,29.93,ENE,59,2.3,2.3,75,0.00,FEW,SCT,0.00,WeatherDisplay:10.37,2013-09-03 14:38:00,
2013-09-03 10:43:00,77.7,68.0,29.93,SSE,167,4.6,4.6,72,0.00,FEW,SCT,0.00,WeatherDisplay:10.37,2013-09-03 14:43:00,
2013-09-03 10:48:00,77.8,68.1,29.93,ESE,102,0.0,0.0,72,0.00,FEW,SCT,0.00,WeatherDisplay:10.37,2013-09-03 14:48:00,
2013-09-03 10:53:00,77.7,68.0,29.94,SW,223,0.0,0.0,72,0.00,FEW,SCT,0.00,WeatherDisplay:10.37,2013-09-03 14:53:00,
2013-09-03 10:58:00,77.7,68.8,29.94,SSE,157,0.0,0.0,74,0.00,FEW,SCT,0.00,WeatherDisplay:10.37,2013-09-03 14:58:00,
2013-09-03 11:03:00,77.6,68.7,29.93,SSE,157,0.0,0.0,74,0.00,FEW,SCT,0.00,WeatherDisplay:10.37,2013-09-03 15:03:00,
2013-09-03 11:08:00,78.0,67.9,29.93,ENE,64,0.0,0.0,71,0.00,FEW,SCT,0.00,WeatherDisplay:10.37,2013-09-03 15:08:00,
2013-09-03 11:13:00,78.1,67.1,29.93,NE,44,5.8,5.8,69,0.00,FEW,SCT,0.00,WeatherDisplay:10.37,2013-09-03 15:13:00,
2013-09-03 11:18:00,78.2,67.6,29.93,East,96,0.7,0.7,70,0.00,FEW,SCT,0.00,WeatherDisplay:10.37,2013-09-03 15:18:00,
2013-09-03 11:23:00,78.9,68.3,29.93,NNE,30,1.0,1.0,70,0.00,FEW,SCT,0.00,WeatherDisplay:10.37,2013-09-03 15:23:00,
2013-09-03 11:28:00,79.5,68.5,29.93,NE,55,3.5,3.5,69,0.00,FEW,SCT,0.00,WeatherDisplay:10.37,2013-09-03 15:28:00,
2013-09-03 11:33:00,79.9,68.4,29.93,NE,49,1.1,1.1,68,0.00,FEW,SCT,0.00,WeatherDisplay:10.37,2013-09-03 15:33:00,
2013-09-03 11:38:00,79.9,68.4,29.93,ENE,62,2.3,2.3,68,0.00,FEW,SCT,0.00,WeatherDisplay:10.37,2013-09-03 15:38:00,
2013-09-03 11:43:00,79.7,68.2,29.93,NNE,25,0.0,0.0,68,0.00,FEW,SCT,0.00,WeatherDisplay:10.37,2013-09-03 15:43:00,
2013-09-03 11:48:00,79.8,68.8,29.93,ENE,75,0.0,0.0,69,0.00,FEW,SCT,0.00,WeatherDisplay:10.37,2013-09-03 15:48:00,
2013-09-03 11:53:00,79.8,69.2,29.93,East,92,1.1,1.1,70,0.00,FEW,SCT,0.00,WeatherDisplay:10.37,2013-09-03 15:53:00,
2013-09-03 11:58:00,80.3,68.8,29.93,East,85,5.8,5.8,68,0.00,FEW,SCT,0.00,WeatherDisplay:10.37,2013-09-03 15:58:00,
2013-09-03 12:03:00,80.5,68.1,29.93,WSW,250,4.6,4.6,66,0.00,SCT,,0.00,WeatherDisplay:10.37,2013-09-03 16:03:00,
2013-09-03 12:08:00,81.0,68.6,29.93,East,82,3.0,3.0,66,0.00,SCT,,0.00,WeatherDisplay:10.37,2013-09-03 16:08:00,
2013-09-03 12:13:00,81.3,68.4,29.93,East,79,2.3,2.3,65,0.00,SCT,,0.00,WeatherDisplay:10.37,2013-09-03 16:13:00,
2013-09-03 12:18:00,81.6,68.7,29.93,ENE,78,3.5,0.0,65,0.00,SCT,,0.00,WeatherDisplay:10.37,2013-09-03 16:18:00,
2013-09-03 12:23:00,81.6,67.8,29.93,East,80,2.0,2.0,63,0.00,SCT,,0.00,WeatherDisplay:10.37,2013-09-03 16:23:00,
2013-09-03 12:28:00,81.3,68.0,29.93,East,95,2.3,0.0,64,0.00,SCT,,0.00,WeatherDisplay:10.37,2013-09-03 16:28:00,
2013-09-03 12:33:00,80.9,68.1,29.93,ENE,68,0.5,0.5,65,0.00,SCT,,0.00,WeatherDisplay:10.37,2013-09-03 16:33:00,
2013-09-03 12:38:00,80.8,68.4,29.92,ENE,72,4.6,4.6,66,0.00,SCT,,0.00,WeatherDisplay:10.37,2013-09-03 16:38:00,
2013-09-03 12:43:00,80.8,67.5,29.92,ENE,72,1.0,0.0,64,0.00,SCT,,0.00,WeatherDisplay:10.37,2013-09-03 16:43:00,
2013-09-03 12:48:00,81.3,68.0,29.92,SSW,200,0.0,0.0,64,0.00,SCT,,0.00,WeatherDisplay:10.37,2013-09-03 16:48:00,
2013-09-03 12:53:00,81.8,68.5,29.92,ESE,112,1.1,1.1,64,0.00,SCT,,0.00,WeatherDisplay:10.37,2013-09-03 16:53:00,
2013-09-03 12:58:00,82.2,67.9,29.92,ENE,62,3.5,3.5,62,0.00,SCT,,0.00,WeatherDisplay:10.37,2013-09-03 16:58:00,
2013-09-03 13:03:00,82.1,67.4,29.92,ESE,114,1.1,1.1,61,0.00,FEW,SCT,0.00,WeatherDisplay:10.37,2013-09-03 17:03:00,
2013-09-03 13:08:00,82.1,68.3,29.92,South,172,1.1,1.1,63,0.00,FEW,SCT,0.00,WeatherDisplay:10.37,2013-09-03 17:08:00,
2013-09-03 13:13:00,82.6,69.2,29.91,North,6,1.1,1.1,64,0.00,FEW,SCT,0.00,WeatherDisplay:10.37,2013-09-03 17:13:00,
2013-09-03 13:18:00,83.2,68.4,29.91,East,88,1.1,0.0,61,0.00,FEW,SCT,0.00,WeatherDisplay:10.37,2013-09-03 17:18:00,
2013-09-03 13:23:00,83.8,69.4,29.91,East,88,0.3,0.3,62,0.00,FEW,SCT,0.00,WeatherDisplay:10.37,2013-09-03 17:23:00,
2013-09-03 13:28:00,84.2,67.4,29.91,ENE,71,0.0,0.0,57,0.00,FEW,SCT,0.00,WeatherDisplay:10.37,2013-09-03 17:28:00,
2013-09-03 13:33:00,84.7,67.8,29.91,East,80,1.2,1.2,57,0.00,FEW,SCT,0.00,WeatherDisplay:10.37,2013-09-03 17:33:00,
2013-09-03 13:38:00,85.0,67.1,29.91,NW,320,0.0,0.3,55,0.00,FEW,SCT,0.00,WeatherDisplay:10.37,2013-09-03 17:38:00,
2013-09-03 13:43:00,85.2,66.2,29.91,NE,47,4.6,4.6,53,0.00,FEW,SCT,0.00,WeatherDisplay:10.37,2013-09-03 17:43:00,
2013-09-03 13:48:00,85.3,66.3,29.91,NE,48,1.1,1.1,53,0.00,FEW,SCT,0.00,WeatherDisplay:10.37,2013-09-03 17:48:00,
2013-09-03 13:53:00,84.9,66.4,29.91,NE,48,0.0,0.0,54,0.00,FEW,SCT,0.00,WeatherDisplay:10.37,2013-09-03 17:53:00,
2013-09-03 13:58:00,84.9,65.9,29.91,ENE,66,1.1,1.1,53,0.00,FEW,SCT,0.00,WeatherDisplay:10.37,2013-09-03 17:58:00,
2013-09-03 14:03:00,84.6,65.6,29.91,ESE,113,3.5,3.5,53,0.00,SCT,,0.00,WeatherDisplay:10.37,2013-09-03 18:03:00,
2013-09-03 14:08:00,84.5,66.1,29.91,East,83,2.3,2.3,54,0.00,SCT,,0.00,WeatherDisplay:10.37,2013-09-03 18:08:00,
2013-09-03 14:13:00,85.0,66.0,29.91,East,96,4.6,4.6,53,0.00,SCT,,0.00,WeatherDisplay:10.37,2013-09-03 18:13:00,
2013-09-03 14:19:00,85.7,65.5,29.90,ESE,116,3.5,3.5,51,0.00,SCT,,0.00,WeatherDisplay:10.37,2013-09-03 18:19:00,
2013-09-03 14:24:00,86.8,66.0,29.90,NNE,31,1.1,1.1,50,0.00,SCT,,0.00,WeatherDisplay:10.37,2013-09-03 18:24:00,
2013-09-03 14:29:00,87.4,65.9,29.90,East,96,3.9,3.9,49,0.00,SCT,,0.00,WeatherDisplay:10.37,2013-09-03 18:29:00,
2013-09-03 14:34:00,87.6,64.9,29.90,WSW,247,1.1,1.1,47,0.00,SCT,,0.00,WeatherDisplay:10.37,2013-09-03 18:34:00,
2013-09-03 14:39:00,88.0,65.9,29.90,East,96,1.1,1.1,48,0.00,SCT,,0.00,WeatherDisplay:10.37,2013-09-03 18:39:00,
2013-09-03 14:44:00,88.7,65.3,29.89,SSE,150,3.5,3.5,46,0.00,SCT,,0.00,WeatherDisplay:10.37,2013-09-03 18:44:00,
2013-09-03 14:49:00,89.0,65.6,29.89,ESE,112,3.9,0.0,46,0.00,SCT,,0.00,WeatherDisplay:10.37,2013-09-03 18:49:00,
2013-09-03 14:54:00,88.9,64.8,29.89,WNW,288,0.0,0.0,45,0.00,SCT,,0.00,WeatherDisplay:10.37,2013-09-03 18:54:00,
2013-09-03 14:59:00,89.3,65.8,29.89,East,89,3.5,3.5,46,0.00,SCT,,0.00,WeatherDisplay:10.37,2013-09-03 18:59:00,
2013-09-03 15:04:00,89.2,65.1,29.89,ESE,117,1.1,1.2,45,0.00,FEW,SCT,0.00,WeatherDisplay:10.37,2013-09-03 19:04:00,
2013-09-03 15:09:00,89.8,65.0,29.88,NNE,27,1.1,1.1,44,0.00,FEW,SCT,0.00,WeatherDisplay:10.37,2013-09-03 19:09:00,
2013-09-03 15:14:00,89.9,64.4,29.88,ENE,59,5.8,5.8,43,0.00,FEW,SCT,0.00,WeatherDisplay:10.37,2013-09-03 19:14:00,
2013-09-03 15:19:00,90.1,64.6,29.88,ESE,120,1.1,1.1,43,0.00,FEW,SCT,0.00,WeatherDisplay:10.37,2013-09-03 19:19:00,
2013-09-03 15:24:00,90.6,64.4,29.88,East,80,2.3,2.3,42,0.00,FEW,SCT,0.00,WeatherDisplay:10.37,2013-09-03 19:24:00,
2013-09-03 15:29:00,90.9,65.3,29.88,East,82,2.3,2.3,43,0.00,FEW,SCT,0.00,WeatherDisplay:10.37,2013-09-03 19:29:00,
2013-09-03 15:34:00,90.9,64.7,29.88,SE,131,5.8,5.8,42,0.00,FEW,SCT,0.00,WeatherDisplay:10.37,2013-09-03 19:34:00,
2013-09-03 15:39:00,90.9,65.3,29.88,ENE,78,3.5,3.5,43,0.00,FEW,SCT,0.00,WeatherDisplay:10.37,2013-09-03 19:39:00,
2013-09-03 15:44:00,90.8,63.9,29.88,SSE,158,2.3,2.3,41,0.00,FEW,SCT,0.00,WeatherDisplay:10.37,2013-09-03 19:44:00,
2013-09-03 15:49:00,90.9,64.7,29.88,NNE,17,3.5,3.5,42,0.00,FEW,SCT,0.00,WeatherDisplay:10.37,2013-09-03 19:49:00,
2013-09-03 15:54:00,91.0,64.8,29.88,ENE,71,1.1,1.1,42,0.00,FEW,SCT,0.00,WeatherDisplay:10.37,2013-09-03 19:54:00,
2013-09-03 15:59:00,90.8,64.6,29.88,East,100,1.1,1.1,42,0.00,FEW,SCT,0.00,WeatherDisplay:10.37,2013-09-03 19:59:00,
2013-09-03 16:04:00,89.8,65.0,29.88,ESE,121,2.8,2.8,44,0.00,SCT,,0.00,WeatherDisplay:10.37,2013-09-03 20:04:00,
2013-09-03 16:09:00,88.6,65.8,29.88,SE,140,1.2,1.2,47,0.00,SCT,,0.00,WeatherDisplay:10.37,2013-09-03 20:09:00,
2013-09-03 16:14:00,87.5,65.4,29.88,SE,137,2.3,2.3,48,0.00,SCT,,0.00,WeatherDisplay:10.37,2013-09-03 20:14:00,
2013-09-03 16:19:00,87.4,65.9,29.88,ENE,61,0.0,0.1,49,0.00,SCT,,0.00,WeatherDisplay:10.37,2013-09-03 20:19:00,
2013-09-03 16:24:00,87.7,65.6,29.88,ESE,107,4.6,4.6,48,0.00,SCT,,0.00,WeatherDisplay:10.37,2013-09-03 20:24:00,
2013-09-03 16:29:00,87.7,65.6,29.88,East,95,2.3,2.3,48,0.00,SCT,,0.00,WeatherDisplay:10.37,2013-09-03 20:29:00,
2013-09-03 16:34:00,87.7,65.6,29.88,ENE,76,5.8,5.8,48,0.00,SCT,,0.00,WeatherDisplay:10.37,2013-09-03 20:34:00,
2013-09-03 16:39:00,87.5,65.4,29.88,East,82,1.1,1.1,48,0.00,SCT,,0.00,WeatherDisplay:10.37,2013-09-03 20:39:00,
2013-09-03 16:44:00,87.6,65.5,29.88,East,80,1.1,1.1,48,0.00,SCT,,0.00,WeatherDisplay:10.37,2013-09-03 20:44:00,
2013-09-03 16:49:00,87.3,64.6,29.88,ESE,113,1.1,1.1,47,0.00,SCT,,0.00,WeatherDisplay:10.37,2013-09-03 20:49:00,
2013-09-03 16:54:00,86.8,64.2,29.88,ESE,110,3.2,3.2,47,0.00,SCT,,0.00,WeatherDisplay:10.37,2013-09-03 20:54:00,
2013-09-03 16:59:00,86.6,64.6,29.88,ENE,78,2.4,2.4,48,0.00,SCT,,0.00,WeatherDisplay:10.37,2013-09-03 20:59:00,
2013-09-03 17:04:00,86.4,65.0,29.89,East,90,1.1,1.1,49,0.00,SCT,,0.00,WeatherDisplay:10.37,2013-09-03 21:04:00,
2013-09-03 17:09:00,86.2,64.2,29.89,NE,54,1.1,1.1,48,0.00,SCT,,0.00,WeatherDisplay:10.37,2013-09-03 21:09:00,
2013-09-03 17:14:00,85.9,64.0,29.89,ESE,123,2.3,2.3,48,0.00,SCT,,0.00,WeatherDisplay:10.37,2013-09-03 21:14:00,
2013-09-03 17:19:00,85.6,63.1,29.89,ENE,75,3.5,3.5,47,0.00,SCT,,0.00,WeatherDisplay:10.37,2013-09-03 21:19:00,
2013-09-03 17:24:00,85.5,63.6,29.89,SSE,147,0.0,0.0,48,0.00,SCT,,0.00,WeatherDisplay:10.37,2013-09-03 21:24:00,
2013-09-03 17:29:00,85.2,63.3,29.89,SW,229,3.5,3.5,48,0.00,SCT,,0.00,WeatherDisplay:10.37,2013-09-03 21:29:00,
2013-09-03 17:34:00,84.9,63.6,29.89,NE,44,1.1,1.1,49,0.00,SCT,,0.00,WeatherDisplay:10.37,2013-09-03 21:34:00,
2013-09-03 17:39:00,84.6,65.1,29.90,SSE,147,1.1,1.1,52,0.00,SCT,,0.00,WeatherDisplay:10.37,2013-09-03 21:39:00,
2013-09-03 17:44:00,84.4,64.3,29.90,SSW,210,2.3,0.0,51,0.00,SCT,,0.00,WeatherDisplay:10.37,2013-09-03 21:44:00,
2013-09-03 17:49:00,84.5,65.5,29.90,East,89,1.1,0.0,53,0.00,SCT,,0.00,WeatherDisplay:10.37,2013-09-03 21:49:00,
2013-09-03 17:54:00,84.1,64.6,29.90,ESE,109,1.3,1.3,52,0.00,SCT,,0.00,WeatherDisplay:10.37,2013-09-03 21:54:00,
2013-09-03 17:59:00,83.8,65.4,29.90,NE,44,1.1,1.1,54,0.00,SCT,,0.00,WeatherDisplay:10.37,2013-09-03 21:59:00,
2013-09-03 18:04:00,83.5,65.1,29.91,North,4,6.9,6.9,54,0.00,FEW,SCT,0.00,WeatherDisplay:10.37,2013-09-03 22:04:00,
2013-09-03 18:09:00,83.2,65.4,29.91,SE,128,3.5,3.5,55,0.00,FEW,SCT,0.00,WeatherDisplay:10.37,2013-09-03 22:09:00,
2013-09-03 18:14:00,82.7,64.9,29.91,ENE,65,2.3,2.3,55,0.00,FEW,SCT,0.00,WeatherDisplay:10.37,2013-09-03 22:14:00,
2013-09-03 18:19:00,82.3,64.6,29.91,ENE,64,2.3,2.3,55,0.00,FEW,SCT,0.00,WeatherDisplay:10.37,2013-09-03 22:19:00,
2013-09-03 18:24:00,82.1,64.4,29.91,East,86,0.0,0.0,55,0.00,FEW,SCT,0.00,WeatherDisplay:10.37,2013-09-03 22:24:00,
2013-09-03 18:29:00,81.6,63.9,29.91,East,88,1.1,1.1,55,0.00,FEW,SCT,0.00,WeatherDisplay:10.37,2013-09-03 22:29:00,
2013-09-03 18:34:00,81.2,64.6,29.91,ENE,66,1.1,0.0,57,0.00,FEW,SCT,0.00,WeatherDisplay:10.37,2013-09-03 22:34:00,
2013-09-03 18:39:00,81.1,65.0,29.91,ENE,58,0.0,0.0,58,0.00,FEW,SCT,0.00,WeatherDisplay:10.37,2013-09-03 22:39:00,
2013-09-03 18:44:00,80.4,64.3,29.91,South,188,1.1,0.0,58,0.00,FEW,SCT,0.00,WeatherDisplay:10.37,2013-09-03 22:44:00,
2013-09-03 18:49:00,80.1,64.0,29.92,South,188,0.0,0.0,58,0.00,FEW,SCT,0.00,WeatherDisplay:10.37,2013-09-03 22:49:00,
2013-09-03 18:54:00,79.9,63.8,29.91,SE,143,1.1,1.1,58,0.00,FEW,SCT,0.00,WeatherDisplay:10.37,2013-09-03 22:54:00,
2013-09-03 18:59:00,79.5,64.0,29.92,SSE,165,1.1,0.0,59,0.00,FEW,SCT,0.00,WeatherDisplay:10.37,2013-09-03 22:59:00,
2013-09-03 19:04:00,79.3,63.8,29.92,SE,138,0.0,0.0,59,0.00,FEW,SCT,0.00,WeatherDisplay:10.37,2013-09-03 23:04:00,
2013-09-03 19:09:00,78.9,63.4,29.92,East,83,1.1,0.0,59,0.00,FEW,SCT,0.00,WeatherDisplay:10.37,2013-09-03 23:09:00,
2013-09-03 19:14:00,78.5,63.5,29.92,East,83,0.0,0.0,60,0.00,FEW,SCT,0.00,WeatherDisplay:10.37,2013-09-03 23:14:00,
2013-09-03 19:19:00,78.2,62.7,29.92,SSE,157,1.1,0.0,59,0.00,FEW,SCT,0.00,WeatherDisplay:10.37,2013-09-03 23:19:00,
2013-09-03 19:24:00,78.3,62.8,29.93,East,85,0.0,0.0,59,0.00,FEW,SCT,0.00,WeatherDisplay:10.37,2013-09-03 23:24:00,
2013-09-03 19:29:00,77.9,62.9,29.93,East,85,0.0,0.0,60,0.00,FEW,SCT,0.00,WeatherDisplay:10.37,2013-09-03 23:29:00,
2013-09-03 19:34:00,77.5,62.6,29.93,South,191,0.9,0.9,60,0.00,FEW,SCT,0.00,WeatherDisplay:10.37,2013-09-03 23:34:00,
2013-09-03 19:39:00,77.5,62.6,29.94,SSE,157,0.0,0.0,60,0.00,FEW,SCT,0.00,WeatherDisplay:10.37,2013-09-03 23:39:00,
2013-09-03 19:44:00,77.5,62.6,29.94,SSE,157,0.0,0.0,60,0.00,FEW,SCT,0.00,WeatherDisplay:10.37,2013-09-03 23:44:00,
2013-09-03 19:49:00,77.5,63.0,29.95,NNE,32,0.0,0.0,61,0.00,FEW,SCT,0.00,WeatherDisplay:10.37,2013-09-03 23:49:00,
2013-09-03 19:54:00,77.1,62.2,29.95,ENE,73,2.3,2.3,60,0.00,FEW,SCT,0.00,WeatherDisplay:10.37,2013-09-03 23:54:00,
2013-09-03 19:59:00,76.9,62.5,29.95,ENE,75,0.0,0.5,61,0.00,FEW,SCT,0.00,WeatherDisplay:10.37,2013-09-03 23:59:00,
2013-09-03 20:04:00,76.5,62.5,29.95,ENE,75,0.0,0.0,62,0.00,FEW,SCT,0.00,WeatherDisplay:10.37,2013-09-04 00:04:00,
2013-09-03 20:09:00,75.8,61.9,29.95,South,188,0.0,0.0,62,0.00,FEW,SCT,0.00,WeatherDisplay:10.37,2013-09-04 00:09:00,
2013-09-03 20:14:00,75.5,61.6,29.95,SE,140,0.0,0.0,62,0.00,FEW,SCT,0.00,WeatherDisplay:10.37,2013-09-04 00:14:00,
2013-09-03 20:19:00,75.1,61.7,29.96,SSE,162,0.0,0.0,63,0.00,FEW,SCT,0.00,WeatherDisplay:10.37,2013-09-04 00:19:00,
2013-09-03 20:24:00,75.3,61.9,29.96,ESE,110,1.1,1.1,63,0.00,FEW,SCT,0.00,WeatherDisplay:10.37,2013-09-04 00:24:00,
2013-09-03 20:30:00,75.2,61.3,29.97,ESE,110,0.0,0.0,62,0.00,FEW,SCT,0.00,WeatherDisplay:10.37,2013-09-04 00:30:00,
2013-09-03 20:35:00,75.0,61.6,29.97,NW,316,0.0,0.0,63,0.00,FEW,SCT,0.00,WeatherDisplay:10.37,2013-09-04 00:35:00,
2013-09-03 20:39:00,74.8,61.4,29.97,NE,55,1.1,0.0,63,0.00,FEW,SCT,0.00,WeatherDisplay:10.37,2013-09-04 00:39:00,
2013-09-03 20:45:00,74.7,61.3,29.98,North,4,0.0,0.0,63,0.00,FEW,SCT,0.00,WeatherDisplay:10.37,2013-09-04 00:45:00,
2013-09-03 20:50:00,74.6,61.7,29.98,NE,54,0.0,0.0,64,0.00,FEW,SCT,0.00,WeatherDisplay:10.37,2013-09-04 00:50:00,
2013-09-03 20:55:00,74.8,61.8,29.98,NNE,17,0.0,0.0,64,0.00,FEW,SCT,0.00,WeatherDisplay:10.37,2013-09-04 00:55:00,
2013-09-03 21:00:00,74.6,61.7,29.98,ESE,113,1.1,0.0,64,0.00,FEW,SCT,0.00,WeatherDisplay:10.37,2013-09-04 01:00:00,
2013-09-03 21:05:00,74.6,61.7,29.99,ESE,113,0.0,0.0,64,0.00,CLR,SCT,0.00,WeatherDisplay:10.37,2013-09-04 01:05:00,
2013-09-03 21:10:00,74.5,61.6,29.99,ENE,71,0.0,0.0,64,0.00,CLR,SCT,0.00,WeatherDisplay:10.37,2013-09-04 01:10:00,
2013-09-03 21:15:00,74.2,61.7,29.99,NNE,14,2.3,2.3,65,0.00,CLR,SCT,0.00,WeatherDisplay:10.37,2013-09-04 01:15:00,
2013-09-03 21:20:00,74.1,61.6,29.99,ESE,113,0.0,0.0,65,0.00,CLR,SCT,0.00,WeatherDisplay:10.37,2013-09-04 01:20:00,
2013-09-03 21:25:00,73.9,61.9,29.99,NE,52,0.0,0.3,66,0.00,CLR,SCT,0.00,WeatherDisplay:10.37,2013-09-04 01:25:00,
2013-09-03 21:30:00,73.3,61.3,29.99,NE,55,0.0,0.0,66,0.00,CLR,SCT,0.00,WeatherDisplay:10.37,2013-09-04 01:30:00,
2013-09-03 21:35:00,73.2,61.2,29.99,ENE,75,1.1,0.0,66,0.00,CLR,SCT,0.00,WeatherDisplay:10.37,2013-09-04 01:35:00,
2013-09-03 21:40:00,73.0,61.0,29.99,ENE,66,0.0,0.0,66,0.00,CLR,SCT,0.00,WeatherDisplay:10.37,2013-09-04 01:40:00,
2013-09-03 21:45:00,72.9,60.9,29.99,ENE,71,0.0,0.0,66,0.00,CLR,SCT,0.00,WeatherDisplay:10.37,2013-09-04 01:45:00,
2013-09-03 21:50:00,72.9,60.9,29.99,ENE,68,0.0,0.0,66,0.00,CLR,SCT,0.00,WeatherDisplay:10.37,2013-09-04 01:50:00,
2013-09-03 21:55:00,72.6,60.6,30.00,ENE,68,0.0,0.0,66,0.00,CLR,SCT,0.00,WeatherDisplay:10.37,2013-09-04 01:55:00,
2013-09-03 22:00:00,72.5,60.5,30.00,ENE,68,0.0,0.0,66,0.00,CLR,SCT,0.00,WeatherDisplay:10.37,2013-09-04 02:00:00,
2013-09-03 22:05:00,72.2,60.2,30.00,ENE,68,0.0,0.0,66,0.00,CLR,SCT,0.00,WeatherDisplay:10.37,2013-09-04 02:05:00,
2013-09-03 22:10:00,71.9,60.0,30.00,NNW,333,1.1,1.1,66,0.00,CLR,SCT,0.00,WeatherDisplay:10.37,2013-09-04 02:10:00,
2013-09-03 22:15:00,71.5,59.6,30.01,NNW,333,0.0,0.0,66,0.00,CLR,SCT,0.00,WeatherDisplay:10.37,2013-09-04 02:15:00,
2013-09-03 22:20:00,71.2,59.7,30.01,ENE,75,0.0,0.0,67,0.00,CLR,SCT,0.00,WeatherDisplay:10.37,2013-09-04 02:20:00,
2013-09-03 22:25:00,71.1,59.6,30.01,ENE,75,0.0,0.0,67,0.00,CLR,SCT,0.00,WeatherDisplay:10.37,2013-09-04 02:25:00,
2013-09-03 22:30:00,71.1,60.0,30.01,North,8,1.0,0.0,68,0.00,CLR,SCT,0.00,WeatherDisplay:10.37,2013-09-04 02:30:00,
2013-09-03 22:35:00,71.1,60.0,30.00,NNE,27,0.0,0.0,68,0.00,CLR,SCT,0.00,WeatherDisplay:10.37,2013-09-04 02:35:00,
2013-09-03 22:40:00,70.9,59.8,30.01,NNE,27,0.0,0.0,68,0.00,CLR,SCT,0.00,WeatherDisplay:10.37,2013-09-04 02:40:00,
2013-09-03 22:45:00,70.6,59.6,30.01,NNE,27,0.0,0.0,68,0.00,CLR,SCT,0.00,WeatherDisplay:10.37,2013-09-04 02:45:00,
2013-09-03 22:50:00,70.6,59.6,30.01,NNE,27,0.0,0.0,68,0.00,CLR,SCT,0.00,WeatherDisplay:10.37,2013-09-04 02:50:00,
2013-09-03 22:55:00,70.6,60.0,30.01,NNE,27,0.0,0.0,69,0.00,CLR,SCT,0.00,WeatherDisplay:10.37,2013-09-04 02:55:00,
2013-09-03 23:00:00,70.5,59.5,30.01,NNE,27,0.0,0.0,68,0.00,CLR,SCT,0.00,WeatherDisplay:10.37,2013-09-04 03:00:00,
2013-09-03 23:05:00,70.3,59.3,30.01,NNE,27,0.0,0.0,68,0.00,CLR,SCT,0.00,WeatherDisplay:10.37,2013-09-04 03:05:00,
2013-09-03 23:10:00,70.4,59.4,30.02,NNE,27,0.0,0.0,68,0.00,CLR,SCT,0.00,WeatherDisplay:10.37,2013-09-04 03:10:00,
2013-09-03 23:15:00,70.4,59.4,30.02,NNE,27,0.0,0.0,68,0.00,CLR,SCT,0.00,WeatherDisplay:10.37,2013-09-04 03:15:00,
2013-09-03 23:20:00,70.2,59.2,30.02,ESE,121,0.0,0.0,68,0.00,CLR,SCT,0.00,WeatherDisplay:10.37,2013-09-04 03:20:00,
2013-09-03 23:25:00,69.9,59.3,30.02,ESE,121,0.0,0.0,69,0.00,CLR,SCT,0.00,WeatherDisplay:10.37,2013-09-04 03:25:00,
2013-09-03 23:30:00,69.5,58.9,30.02,ESE,121,0.0,0.0,69,0.00,CLR,SCT,0.00,WeatherDisplay:10.37,2013-09-04 03:30:00,
2013-09-03 23:35:00,69.6,59.0,30.02,ESE,121,0.0,0.0,69,0.00,CLR,SCT,0.00,WeatherDisplay:10.37,2013-09-04 03:35:00,
2013-09-03 23:40:00,69.6,59.0,30.02,ESE,121,0.0,0.0,69,0.00,CLR,SCT,0.00,WeatherDisplay:10.37,2013-09-04 03:40:00,
2013-09-03 23:45:00,69.4,58.8,30.02,ESE,121,0.0,0.0,69,0.00,CLR,SCT,0.00,WeatherDisplay:10.37,2013-09-04 03:45:00,
2013-09-03 23:50:00,69.3,59.1,30.03,ESE,121,0.0,0.0,70,0.00,CLR,SCT,0.00,WeatherDisplay:10.37,2013-09-04 03:50:00,
2013-09-03 23:55:00,69.3,59.1,30.03,ESE,121,0.0,0.0,70,0.00,CLR,SCT,0.00,WeatherDisplay:10.37,2013-09-04 03:55:00,